Nucla Hopkins Field Airport, CO

2:12 PM MST on November 24, 2017 (GMT -0700)
Nucla Hopkins Field Airport

Weather History for KAIB - April, 2013

Change the Weather History Date:

Friday, April 5, 2013

  Actual Average (KTEX) Record (KTEX)
Temperature  
Mean Temperature 56 °F -  
Max Temperature 68 °F 41 °F 55 °F (2002)
Min Temperature 44 °F 23 °F 14 °F (2003)
Degree Days  
Heating Degree Days 9    
Growing Degree Days 6 (Base 50)    
Moisture  
Dew Point 23 °F    
Average Humidity 33    
Maximum Humidity 61    
Minimum Humidity 17    
Precipitation  
Precipitation 0.00 in - - ()
Sea Level Pressure  
Sea Level Pressure 30.03 in    
Wind  
Wind Speed 8 mph ()    
Max Wind Speed 25 mph    
Max Gust Speed 33 mph    
Visibility 10.0 miles    
Events Rain    
Averages and records for this station are not official NWS values.
T = Trace of Precipitation, MM = Missing Value Source: Averaged Metar Reports

Daily Weather History Graph

Daily Weather History Graph

Search for Another Location

Airport or City:

Trip Planner

Search our weather history database for the weather conditions in past years. The results will help you decide how hot, cold, wet, or windy it might be!

Date:

Astronomy

Apr. 05, 2013 Rise Set
Actual Time 6:52 AM MDT 7:41 PM MDT
Civil Twilight 6:26 AM MDT 8:08 PM MDT
Nautical Twilight 5:54 AM MDT 8:40 PM MDT
Astronomical Twilight 5:21 AM MDT 9:12 PM MDT
Moon 3:58 AM MDT (4/5) 3:12 PM MDT (4/5)
Length of Visible Light 13h 42m
Length of Day
12h 48m
Waning Crescent, 23% of the Moon is Illuminated
Apr 5
Waning Crescent
Apr 10
New
Apr 18
First Quarter
Apr 25
Full
May 2
Last Quarter

Hourly Weather History & Observations

Time (MDT) Temp. Windchill Dew Point Humidity Pressure Visibility Wind Dir Wind Speed Gust Speed Precip Events Conditions
12:15 AM 50.0 °F - 17.6 °F 28% 30.13 in 10.0 mi East 8.1 mph - N/A   Clear
12:35 AM 50.0 °F - 17.6 °F 28% 30.13 in 10.0 mi East 9.2 mph - N/A   Clear
12:55 AM 50.0 °F - 17.6 °F 28% 30.12 in 10.0 mi East 10.4 mph - N/A   Clear
1:15 AM 48.2 °F - 17.6 °F 30% 30.12 in 10.0 mi East 9.2 mph - N/A   Clear
1:35 AM 46.4 °F 42.4 °F 17.6 °F 32% 30.12 in 10.0 mi ENE 8.1 mph - N/A   Clear
1:55 AM 48.2 °F - 17.6 °F 30% 30.12 in 10.0 mi Calm Calm - N/A   Clear
2:15 AM 48.2 °F - 17.6 °F 30% 30.11 in 10.0 mi East 3.5 mph - N/A   Clear
2:35 AM 46.4 °F 44.3 °F 19.4 °F 34% 30.11 in 10.0 mi East 4.6 mph - N/A   Clear
2:55 AM 46.4 °F 44.3 °F 19.4 °F 34% 30.11 in 10.0 mi East 4.6 mph - N/A   Clear
3:15 AM 44.6 °F 43.1 °F 19.4 °F 37% 30.10 in 10.0 mi East 3.5 mph - N/A   Clear
3:35 AM 44.6 °F 43.1 °F 19.4 °F 37% 30.10 in 10.0 mi SE 3.5 mph - N/A   Clear
3:55 AM 44.6 °F 40.7 °F 19.4 °F 37% 30.09 in 10.0 mi East 6.9 mph - N/A   Mostly Cloudy
4:15 AM 46.4 °F 41.9 °F 19.4 °F 34% 30.08 in 10.0 mi ESE 9.2 mph - N/A   Overcast
4:35 AM 46.4 °F 42.4 °F 19.4 °F 34% 30.08 in 10.0 mi ESE 8.1 mph - N/A   Overcast
4:55 AM 46.4 °F 43.5 °F 19.4 °F 34% 30.07 in 10.0 mi East 5.8 mph - N/A   Scattered Clouds
5:15 AM 46.4 °F 42.4 °F 19.4 °F 34% 30.06 in 10.0 mi ESE 8.1 mph - N/A   Clear
5:35 AM 44.6 °F 43.1 °F 19.4 °F 37% 30.06 in 10.0 mi ENE 3.5 mph - N/A   Scattered Clouds
6:15 AM 44.6 °F 42.2 °F 21.2 °F 39% 30.06 in 10.0 mi NW 4.6 mph - N/A   Overcast
6:35 AM 44.6 °F - 21.2 °F 39% 30.06 in 10.0 mi Calm Calm - N/A   Mostly Cloudy
6:55 AM 44.6 °F 43.1 °F 21.2 °F 39% 30.06 in 10.0 mi South 3.5 mph - N/A   Overcast
7:15 AM 44.6 °F - 21.2 °F 39% 30.05 in 10.0 mi Calm Calm - N/A   Overcast
7:35 AM 44.6 °F - 21.2 °F 39% 30.07 in 10.0 mi Calm Calm - N/A   Scattered Clouds
7:55 AM 46.4 °F 45.2 °F 21.2 °F 37% 30.07 in 10.0 mi SSW 3.5 mph - N/A   Clear
8:15 AM 46.4 °F - 21.2 °F 37% 30.07 in 10.0 mi Calm Calm - N/A   Clear
8:35 AM 46.4 °F 45.2 °F 21.2 °F 37% 30.07 in 10.0 mi ESE 3.5 mph - N/A   Clear
8:55 AM 46.4 °F 43.5 °F 23.0 °F 40% 30.07 in 10.0 mi ESE 5.8 mph - N/A   Clear
9:15 AM 50.0 °F - 21.2 °F 32% 30.08 in 10.0 mi ESE 5.8 mph - N/A   Mostly Cloudy
9:35 AM 51.8 °F - 21.2 °F 30% 30.07 in 10.0 mi ESE 4.6 mph - N/A   Mostly Cloudy
9:55 AM 55.4 °F - 21.2 °F 26% 30.07 in 10.0 mi SSW 9.2 mph - N/A   Scattered Clouds
10:15 AM 59.0 °F - 21.2 °F 23% 30.06 in 10.0 mi SW 6.9 mph - N/A   Mostly Cloudy
10:35 AM 59.0 °F - 21.2 °F 23% 30.06 in 10.0 mi SSW 6.9 mph - N/A   Mostly Cloudy
10:55 AM 60.8 °F - 21.2 °F 22% 30.06 in 10.0 mi SW 10.4 mph - N/A   Overcast
11:15 AM 60.8 °F - 19.4 °F 20% 30.05 in 10.0 mi SSW 11.5 mph 16.1 mph N/A   Overcast
11:35 AM 62.6 °F - 21.2 °F 20% 30.05 in 10.0 mi SSW 9.2 mph - N/A   Overcast
11:55 AM 62.6 °F - 21.2 °F 20% 30.04 in 10.0 mi SW 17.3 mph 23.0 mph N/A   Mostly Cloudy
12:15 PM 62.6 °F - 21.2 °F 20% 30.04 in 10.0 mi SW 11.5 mph 21.9 mph N/A   Mostly Cloudy
12:35 PM 62.6 °F - 21.2 °F 20% 30.03 in 10.0 mi SSW 16.1 mph 21.9 mph N/A   Mostly Cloudy
12:55 PM 62.6 °F - 24.8 °F 24% 30.02 in 10.0 mi WSW 18.4 mph 26.5 mph N/A Rain Light Rain
1:15 PM 62.6 °F - 23.0 °F 22% 30.01 in 10.0 mi SSW 17.3 mph 26.5 mph N/A   Mostly Cloudy
1:35 PM 66.2 °F - 24.8 °F 21% 30.00 in 10.0 mi South 13.8 mph 23.0 mph N/A   Mostly Cloudy
1:55 PM 68.0 °F - 23.0 °F 18% 30.00 in 10.0 mi SSW 15.0 mph 23.0 mph N/A   Mostly Cloudy
2:15 PM 68.0 °F - 21.2 °F 17% 29.98 in 10.0 mi SW 15.0 mph 27.6 mph N/A   Mostly Cloudy
2:35 PM 66.2 °F - 21.2 °F 18% 29.97 in 10.0 mi SW 13.8 mph 23.0 mph N/A   Scattered Clouds
2:55 PM 68.0 °F - 21.2 °F 17% 29.96 in 10.0 mi South 15.0 mph 27.6 mph N/A   Mostly Cloudy
3:15 PM 66.2 °F - 21.2 °F 18% 29.95 in 10.0 mi SW 16.1 mph 23.0 mph N/A   Mostly Cloudy
3:35 PM 64.4 °F - 21.2 °F 19% 29.94 in 10.0 mi SW 9.2 mph 25.3 mph N/A   Mostly Cloudy
3:55 PM 64.4 °F - 21.2 °F 19% 29.93 in 10.0 mi SSW 19.6 mph 24.2 mph N/A   Overcast
4:15 PM 64.4 °F - 19.4 °F 18% 29.92 in 10.0 mi SW 20.7 mph 25.3 mph N/A   Overcast
4:35 PM 64.4 °F - 21.2 °F 19% 29.94 in 10.0 mi SW 24.2 mph 33.4 mph N/A   Overcast
4:55 PM 64.4 °F - 21.2 °F 19% 29.92 in 10.0 mi WSW 10.4 mph 27.6 mph N/A   Overcast
5:15 PM 64.4 °F - 21.2 °F 19% 29.93 in 10.0 mi SW 17.3 mph 31.1 mph N/A   Mostly Cloudy
5:35 PM 62.6 °F - 24.8 °F 24% 29.92 in 10.0 mi SW 19.6 mph 27.6 mph N/A   Scattered Clouds
5:55 PM 62.6 °F - 23.0 °F 22% 29.92 in 10.0 mi SSW 11.5 mph 17.3 mph N/A   Mostly Cloudy
6:15 PM 62.6 °F - 21.2 °F 20% 29.92 in 10.0 mi WNW 17.3 mph 23.0 mph N/A   Overcast
6:35 PM 62.6 °F - 23.0 °F 22% 29.94 in 10.0 mi WNW 25.3 mph 29.9 mph N/A   Mostly Cloudy
6:55 PM 60.8 °F - 26.6 °F 27% 29.95 in 10.0 mi NW 21.9 mph 28.8 mph N/A   Mostly Cloudy
7:15 PM 59.0 °F - 30.2 °F 34% 29.96 in 10.0 mi NNW 20.7 mph 31.1 mph N/A   Overcast
7:35 PM 55.4 °F - 32.0 °F 41% 29.97 in 10.0 mi NNW 11.5 mph - N/A   Scattered Clouds
7:55 PM 53.6 °F - 32.0 °F 44% 29.98 in 10.0 mi NW 9.2 mph - N/A   Mostly Cloudy
8:15 PM 53.6 °F - 32.0 °F 44% 29.98 in 10.0 mi WNW 4.6 mph - N/A   Mostly Cloudy
8:35 PM 51.8 °F - 32.0 °F 47% 29.98 in 10.0 mi WNW 6.9 mph - N/A   Scattered Clouds
8:55 PM 50.0 °F - 32.0 °F 50% 30.00 in 10.0 mi West 4.6 mph - N/A   Clear
9:15 PM 51.8 °F - 32.0 °F 47% 30.00 in 10.0 mi WNW 3.5 mph - N/A   Clear
9:35 PM 50.0 °F - 32.0 °F 50% 30.01 in 10.0 mi Calm Calm - N/A   Clear
9:55 PM 46.4 °F 44.3 °F 32.0 °F 57% 30.03 in 10.0 mi ESE 4.6 mph - N/A   Scattered Clouds
10:15 PM 46.4 °F 45.2 °F 32.0 °F 57% 30.03 in 10.0 mi East 3.5 mph - N/A   Clear
10:35 PM 44.6 °F 40.7 °F 32.0 °F 61% 30.03 in 10.0 mi ESE 6.9 mph - N/A   Clear
10:55 PM 44.6 °F 40.2 °F 32.0 °F 61% 30.04 in 10.0 mi East 8.1 mph - N/A   Scattered Clouds
11:15 PM 44.6 °F 40.2 °F 32.0 °F 61% 30.04 in 10.0 mi East 8.1 mph - N/A   Scattered Clouds
11:35 PM 46.4 °F 42.4 °F 32.0 °F 57% 30.04 in 10.0 mi ESE 8.1 mph - N/A   Mostly Cloudy
11:55 PM 44.6 °F 41.4 °F 32.0 °F 61% 30.05 in 10.0 mi ESE 5.8 mph - N/A   Mostly Cloudy